Weather Roundup
Issued by NWS

Home | Current Version | Previous Version | Text Only | Print | Product List | Glossary On
Versions: 1 2 3 4 5 6 7 8 9 10 11 12 13 14 15 16 17 18 19 20 21 22 23 24 25 26 27 28 29 30 31 32 33 34 35 36 37 38 39 40 41 42 43 44 45 46 47 48 49 50
433
NZUS93 KARX 191159
HRRWXR

CURRENT HOURLY OBSERVATIONS ACROSS
MUCH OF THE UPPER MISSISSIPPI VALLEY
NATIONAL WEATHER SERVICE LA CROSSE WI
600 AM CST THU JAN 19 2017


...SOUTHEAST MINNESOTA...


CITY           SKY/WX    TMP DP  RH WIND       PRES   REMARKS
ROCHESTER      FOG       30  30 100 S8        29.86S VSB 1/2 WCI  22
ROCHESTER/MAYO CLOUDY    31  31 100 SE7       29.87S WCI  24
WINONA         CLEAR     32  32 100 CALM      29.91S
AUSTIN         FOG       30  30 100 S8        29.85F VSB 1/2 WCI  23
ALBERT LEA     PTCLDY    32  30  93 S7        29.83F FOG     WCI  26
DODGE CENTER   FOG       30  30 100 S12       29.86R VSB 1/2 WCI  21
PRESTON        FOG       30  29  96 S8        29.88S VSB 1/4 WCI  22
OWATONNA       CLEAR     32  28  86 S16       29.84R FOG     WCI  21
FARIBAULT      CLEAR     32  30  93 S8        29.84R WCI  25
$$

...ELSEWHERE IN MINNESOTA...


CITY           SKY/WX    TMP DP  RH WIND       PRES   REMARKS
MINNEAPOLIS    CLEAR     32  29  88 VRB5      29.82R WCI  27
INTNL FALLS    CLOUDY    22  19  89 SE6       29.67S WCI  14
DULUTH         FOG       33  33 100 S9        29.76R VSB 1/4 WCI  25
RED WING       CLEAR     32  28  86 SE5       29.86R FOG     WCI  27
REDWOOD FALLS  CLEAR     33  29  85 S10       29.76R WCI  25
MANKATO        CLEAR     33  31  92 S9        29.82R WCI  25
WORTHINGTON    CLEAR     35  32  88 S12       29.77R WCI  27
FAIRMONT       CLOUDY    33  32  96 S14       29.81S FOG     WCI  23
$$

...SOUTHWEST WISCONSIN...


CITY           SKY/WX    TMP DP  RH WIND       PRES   REMARKS
LA CROSSE      CLOUDY    36  33  89 SE8       29.92S WCI  30
PRAIRIE DU CHI CLOUDY    33  32  95 CALM      29.95S FOG
BOSCOBEL       CLOUDY    33  31  92 SW3       29.96S FOG
LONE ROCK      CLOUDY    34  32  93 S5        29.95F FOG     WCI  30
PLATTEVILLE    CLOUDY    32  32 100 S5        29.95F VSB 1/4 WCI  27
FORT MC COY    FOG       27  27 100 CALM      29.93S VSB 1/2
MAUSTON-NEW LI CLOUDY    34  33  96 SE3       29.93R FOG
VIROQUA        FAIR      32  32 100 SE5       29.90F WCI  27
WIS DELLS      CLEAR     32  31  98 CALM      29.94S FOG
$$

...ELSEWHERE IN WISCONSIN...


CITY           SKY/WX    TMP DP  RH WIND       PRES   REMARKS
MILWAUKEE      FOG       34  32  92 SW7       29.98S VSB 1   WCI  28
MADISON        CLOUDY    33  33 100 S3        29.96F FOG
GREEN BAY      CLOUDY    34  34 100 SW8       29.95F FOG     WCI  27
EAU CLAIRE     NOT AVBL
BLACK RVR FLS  FOG       27  27 100 S3        29.91S VSB 1
MEDFORD        FOG       31  31 100 S7        29.88S VSB 1/4 WCI  24
WAUSAU         FOG       31  31 100 CALM      29.88F VSB 1/4
WIS RAPIDS     FOG       33  33 100 S6        29.93S VSB 1/2 WCI  28
MARSHFIELD     FOG       32  31  96 S7        29.89S VSB 1/4 WCI  26
RICE LAKE      FOG       30  30  99 SE5       29.86S VSB 1/4 WCI  25
$$

...NORTHEAST IOWA...


CITY           SKY/WX    TMP DP  RH WIND       PRES   REMARKS
WATERLOO       FOG       32  31  96 S6        29.89F VSB 1/4 WCI  26
DUBUQUE        FOG       30  30 100 S5        29.93F VSB 1/4 WCI  25
DECORAH        FOG       30  30 100 S6        29.90R VSB 1/4 WCI  24
MASON CITY     FOG       31  30  96 S9        29.85F VSB 1/4 WCI  23
CHARLES CITY   FOG       32  32 100 S8        29.88S VSB<1/4 WCI  25
OELWEIN        FOG       32  32 100 S12       29.90F VSB<1/4 WCI  23
$$

...ELSEWHERE IN IOWA...


CITY           SKY/WX    TMP DP  RH WIND       PRES   REMARKS
DES MOINES     FOG       32  31  96 SE7       29.87S VSB 1/2 WCI  26
IOWA CITY      FOG       29  28  96 CALM      29.95F VSB 1/4
FORT DODGE     CLOUDY    34  30  86 SE5       29.84S VSB 3/4 WCI  30
MARSHALLTOWN   FOG       31  31 100 SE7       29.87F VSB 1/4 WCI  24
CEDAR RAPIDS   FOG       30  29  96 E7        29.91F VSB 1/4 WCI  23
$$

...NORTHERN ILLINOIS...


CITY           SKY/WX    TMP DP  RH WIND       PRES   REMARKS
CHICAGO-OHARE  CLOUDY    33  33 100 S3        30.00F FOG
CHICAGO-MIDWAY CLOUDY    33  31  92 S7        30.02F FOG     WCI  27
MOLINE         CLEAR     26  24  92 E6        29.95F FOG     WCI  19
ROCKFORD       PTCLDY    31  29  92 S6        30.00S FOG     WCI  25
PEORIA         CLOUDY    36  35  96 E3        29.98F FOG
$$

NOTE: "FAIR" INDICATES FEW OR NO CLOUDS BELOW 12,000 FEET WITH NO
SIGNIFICANT WEATHER AND/OR OBSTRUCTIONS TO VISIBILITY. WIND
SPEEDS ARE IN MILES-PER-HOUR.




USA.gov is the U.S. government's official web portal to all federal, state and local government web resources and services.